Wetbulb
70.65 73.41 76.00 75.60 75.93 76.47 76.57 76.55 76.53 76.59 76.55 76.51 76.47 76.15 76.08 75.33 76.34 76.46 76.66 76.68 76.48 76.80 76.75 76.65 76.61 76.39 76.14 76.35 76.48 76.36 76.29 76.26 76.00 75.90 76.31 76.07 75.40 75.47 75.52 75.72 75.55 73.09 74.26
72.27 74.13 76.30 76.31 76.37 76.55 76.63 76.58 76.38 76.66 76.72 76.60 76.39 75.79 75.31 75.98 76.56 76.64 76.59 76.73 76.75 76.95 76.95 76.90 76.21 75.79 76.17 76.17 76.31 76.31 76.53 76.41 76.39 76.14 76.23 76.21 76.38 76.04 75.83 75.72 75.43 73.89 74.64
72.50 74.11 75.15 76.43 76.76 76.67 76.67 76.81 76.76 76.43 76.70 76.46 76.06 76.21 76.04 76.13 76.77 76.69 76.72 76.89 76.81 76.56 76.63 76.23 76.31 76.21 76.14 76.17 75.98 76.28 76.13 76.15 76.22 76.56 76.18 73.83 73.87 75.98 76.34 76.25 75.85 75.49 75.13
72.93 73.47 74.90 76.67 77.05 76.72 76.49 76.49 76.63 76.71 76.51 76.41 76.47 76.39 76.57 76.81 76.66 76.76 76.70 76.61 76.61 76.23 76.42 76.51 76.51 76.31 75.56 75.94 75.98 76.23 76.48 76.54 76.38 75.52 72.69 73.09 73.50 75.26 75.71 75.83 75.89 75.45 75.18
72.79 73.26 74.30 76.71 76.74 76.78 76.58 76.33 76.66 76.73 76.50 76.46 76.42 76.58 76.63 76.47 76.50 75.87 75.40 75.54 76.12 76.37 75.90 76.51 76.20 76.04 75.79 75.76 76.19 76.54 76.45 76.02 75.77 74.09 72.41 72.60 73.21 75.10 75.83 75.75 75.40 75.48 75.64
73.26 73.67 75.66 76.66 76.73 76.76 76.59 76.43 76.48 76.89 76.20 76.52 76.71 76.75 76.61 76.67 76.59 76.72 76.03 76.66 75.43 76.26 76.35 76.45 76.25 76.00 76.06 76.15 76.15 76.63 76.48 75.92 75.11 72.35 71.84 73.72 72.56 75.89 75.84 75.49 75.15 74.91 74.71
71.37 73.45 74.53 76.64 76.43 76.64 76.37 76.55 76.77 76.43 76.64 76.64 76.40 76.62 76.54 76.48 76.32 76.65 76.26 76.26 75.85 75.62 75.90 75.87 75.93 75.87 76.00 76.23 75.93 76.57 76.02 75.56 72.68 72.26 71.74 72.20 73.90 76.53 75.73 75.64 74.90 74.28 74.49
71.47 72.01 73.73 76.00 76.44 76.49 76.97 76.60 76.75 76.55 76.61 76.37 76.90 76.47 76.51 76.51 76.64 76.59 76.07 76.21 75.87 75.10 74.96 75.15 75.32 75.37 75.51 76.57 76.82 76.46 75.78 75.26 72.83 71.49 71.40 71.55 74.80 75.30 75.28 74.88 74.31 74.01 73.76
72.98 72.52 72.16 73.28 74.76 76.38 76.75 76.71 76.73 76.79 76.58 76.45 76.52 76.62 76.65 76.56 76.48 76.48 76.12 75.20 74.90 74.61 74.53 74.46 74.57 74.74 74.90 75.70 76.05 76.96 75.12 74.54 70.06 70.22 71.60 71.44 74.88 75.09 74.12 74.09 74.10 72.61 72.29
72.23 72.50 71.43 72.04 73.08 73.44 73.86 76.83 76.71 76.88 76.81 76.72 76.33 76.45 76.94 77.12 76.49 76.07 76.71 76.28 75.62 75.10 74.62 74.18 74.32 75.01 74.96 75.24 76.67 75.15 74.29 73.06 69.22 69.89 70.62 71.50 75.09 74.26 73.94 73.28 72.16 73.01 72.35
71.44 71.14 71.34 72.02 72.10 72.54 72.98 74.86 76.20 76.38 76.74 77.07 76.07 76.25 74.47 72.18 73.47 73.78 75.58 75.85 75.71 75.74 75.57 75.57 75.24 75.26 75.24 75.10 75.83 76.04 73.56 68.92 70.33 70.43 70.62 73.91 74.06 72.29 71.71 71.69 71.78 72.09 72.47
69.33 70.52 70.88 71.17 71.16 71.46 74.01 72.13 71.11 72.35 72.14 72.72 71.45 69.79 70.57 71.08 72.08 73.48 74.64 75.96 75.76 75.85 75.78 75.89 75.96 76.11 74.97 71.83 71.51 74.38 69.83 68.08 69.07 70.09 70.39 74.10 72.67 72.29 72.18 72.06 72.27 72.36 72.86
69.79 70.44 70.47 70.52 70.60 70.65 71.41 71.85 70.28 68.29 69.93 68.38 67.36 68.61 69.93 70.09 70.72 71.73 71.67 71.93 71.67 74.33 71.44 70.97 70.27 72.42 72.38 71.91 72.05 70.94 70.65 68.12 67.85 68.84 70.53 74.17 73.39 72.81 72.48 72.59 72.68 73.13 73.58
68.32 69.88 70.47 70.25 69.28 70.45 70.12 70.35 69.37 66.94 67.19 66.56 66.14 67.69 68.04 69.15 68.87 69.90 70.45 70.50 70.59 70.73 66.94 66.57 67.63 68.75 69.88 70.00 69.26 71.09 68.49 69.28 67.89 67.87 69.62 73.87 73.84 73.46 73.47 73.79 74.03 74.18 74.27
67.82 69.09 69.43 69.59 69.81 70.04 69.37 69.29 67.03 65.94 66.32 66.90 66.92 68.10 68.63 68.53 68.42 69.03 69.34 68.98 67.05 69.12 68.87 69.04 68.16 68.72 68.47 69.35 68.82 69.20 67.04 67.55 67.17 68.52 69.87 74.06 74.31 74.48 74.31 74.29 74.32 74.51 74.72
67.97 68.40 69.26 69.71 70.18 70.06 68.56 67.93 65.69 65.82 66.36 67.55 67.15 67.39 67.98 68.44 69.00 69.71 68.63 68.02 68.51 68.83 67.68 67.81 68.92 68.15 68.94 67.36 66.66 66.61 66.25 66.00 66.41 67.87 70.11 70.71 75.47 74.90 75.08 74.98 75.05 75.33 75.44
67.37 68.22 68.48 68.60 70.17 69.55 68.72 67.43 65.87 66.50 67.16 67.55 67.12 67.53 67.49 68.49 69.52 68.48 68.10 68.51 69.01 69.14 69.59 70.76 70.66 69.75 68.54 67.64 66.59 65.77 64.94 65.54 65.82 66.19 67.93 68.44 70.06 74.91 75.22 75.12 76.32 76.87 76.08
67.86 67.91 68.64 71.63 69.66 69.41 68.87 68.77 67.37 68.70 67.75 67.48 67.79 68.04 68.87 70.03 69.84 69.38 68.69 68.41 70.29 70.35 69.37 69.16 68.69 68.27 67.75 67.43 66.46 65.70 65.97 65.64 65.21 65.14 65.50 66.69 67.25 69.06 71.30 75.50 76.33 76.81 76.10
68.25 67.98 67.66 68.95 68.61 68.69 68.72 68.75 68.42 69.26 68.86 67.75 67.88 69.40 70.65 71.11 71.74 71.07 69.31 70.06 69.44 69.17 69.89 70.32 69.05 67.66 66.85 66.62 66.65 66.70 66.65 66.26 65.49 66.74 65.52 65.64 65.47 67.48 67.39 69.91 73.75 75.49 75.87
67.90 67.91 67.23 68.10 68.63 68.62 68.69 68.79 68.41 68.69 69.72 69.53 69.22 69.89 70.19 71.46 72.12 69.10 66.83 65.97 67.82 68.00 69.08 69.40 67.68 69.02 66.21 66.13 67.84 68.16 66.69 66.53 66.64 67.08 67.20 67.53 67.09 67.44 67.96 68.63 69.02 70.28 73.98
67.90 66.93 66.29 68.03 67.83 69.35 68.46 67.48 67.33 67.86 69.08 70.03 70.53 70.57 70.92 71.87 71.72 68.57 66.46 64.20 67.51 69.11 69.85 70.94 69.30 68.39 66.56 67.34 66.68 66.79 65.81 66.76 66.30 67.97 68.50 68.61 68.28 69.44 69.53 70.22 70.08 70.74 71.56
67.16 67.35 66.57 68.14 67.22 68.99 68.08 68.63 67.81 68.06 68.25 71.20 72.49 71.28 71.13 71.68 72.21 69.98 68.08 63.75 68.37 68.12 69.05 70.78 70.22 68.34 67.55 66.99 67.32 64.58 62.14 63.85 65.66 66.10 67.57 68.61 68.10 69.18 69.28 70.67 70.91 70.93 71.10
67.26 67.14 67.43 68.20 67.48 69.49 69.46 69.88 69.26 69.26 69.52 69.14 69.67 69.65 70.97 71.79 72.24 70.57 67.30 66.31 67.77 65.91 68.74 69.85 70.75 69.48 67.93 67.77 67.05 66.67 62.27 60.91 64.43 65.30 65.51 66.97 68.29 68.04 68.42 69.25 70.15 71.15 72.65
67.74 68.02 68.15 68.17 68.88 69.82 69.67 68.79 68.00 66.89 66.70 67.73 68.66 69.56 70.00 72.00 71.96 71.25 69.20 67.94 67.53 63.77 68.99 70.75 70.77 68.99 67.21 66.45 68.47 66.48 66.32 64.79 62.15 62.15 65.60 66.70 65.62 67.88 67.16 68.93 70.08 70.20 72.43
68.53 68.42 68.87 68.56 69.17 69.45 68.94 68.54 67.89 66.89 67.05 68.11 69.02 69.10 69.49 70.43 71.21 71.86 70.93 69.79 63.71 67.59 69.54 70.89 69.31 65.24 66.61 66.74 66.92 66.30 65.85 65.69 64.41 63.09 60.79 63.69 64.30 64.72 68.88 68.42 69.26 70.06 70.49
68.55 69.04 69.32 68.79 68.83 69.24 69.03 68.27 67.73 67.48 67.58 68.04 68.38 68.71 69.32 69.63 70.75 71.23 71.55 69.59 67.35 69.31 70.21 71.30 70.40 65.16 64.09 66.43 68.13 66.12 66.05 65.58 63.20 62.60 60.44 59.97 59.56 63.05 67.52 67.76 67.71 67.82 68.18
MSLP
1014.94 1014.70 1014.73 1014.82 1014.89 1014.94 1014.93 1015.06 1015.14 1015.26 1015.46 1015.45 1015.47 1015.50 1015.66 1015.77 1015.77 1015.87 1015.82 1015.82 1015.83 1015.84 1015.89 1016.05 1016.05 1016.12 1016.22 1016.31 1016.37 1016.48 1016.54 1016.65 1016.69 1016.85 1016.83 1016.93 1017.00 1017.05 1017.16 1017.24 1017.41 1017.53 1017.56
1014.52 1014.76 1014.82 1014.85 1014.94 1015.11 1015.22 1015.29 1015.38 1015.54 1015.51 1015.58 1015.59 1015.68 1015.84 1015.89 1015.96 1016.04 1016.08 1016.07 1016.09 1016.20 1016.35 1016.31 1016.30 1016.41 1016.59 1016.56 1016.71 1016.82 1016.91 1016.90 1016.94 1016.96 1017.18 1017.29 1017.27 1017.36 1017.45 1017.57 1017.75 1017.76 1017.91
1014.73 1014.78 1014.95 1014.90 1015.11 1015.33 1015.43 1015.59 1015.60 1015.75 1015.67 1015.82 1015.92 1015.99 1016.16 1016.28 1016.33 1016.34 1016.34 1016.33 1016.42 1016.61 1016.61 1016.59 1016.69 1016.85 1017.01 1016.97 1017.03 1017.13 1017.29 1017.15 1017.29 1017.41 1017.61 1017.71 1017.62 1017.70 1017.70 1017.88 1017.94 1018.19 1018.37
1014.80 1015.01 1015.17 1015.32 1015.36 1015.59 1015.75 1015.83 1015.84 1015.88 1016.02 1016.16 1016.31 1016.45 1016.50 1016.55 1016.68 1016.61 1016.62 1016.71 1016.74 1016.79 1016.96 1016.98 1017.05 1017.22 1017.29 1017.27 1017.45 1017.43 1017.57 1017.59 1017.78 1017.99 1018.11 1018.09 1017.96 1017.97 1018.15 1018.21 1018.36 1018.55 1018.61
1015.03 1015.30 1015.47 1015.55 1015.65 1015.75 1015.91 1016.13 1016.17 1016.25 1016.44 1016.57 1016.62 1016.82 1016.74 1016.92 1016.96 1016.98 1016.95 1017.01 1017.07 1017.09 1017.36 1017.45 1017.43 1017.54 1017.48 1017.57 1017.82 1017.65 1017.90 1018.11 1018.28 1018.44 1018.57 1018.69 1018.58 1018.43 1018.51 1018.62 1018.68 1018.80 1018.87
1015.21 1015.45 1015.56 1015.77 1015.88 1015.97 1016.07 1016.29 1016.33 1016.47 1016.67 1016.87 1016.98 1017.00 1017.00 1017.06 1017.11 1017.17 1017.20 1017.26 1017.48 1017.65 1017.71 1017.78 1017.82 1017.81 1017.83 1017.87 1018.07 1018.08 1018.36 1018.59 1018.69 1018.82 1018.95 1018.94 1018.90 1018.82 1018.89 1018.92 1018.99 1019.02 1019.12
1015.56 1015.66 1015.75 1015.90 1016.09 1016.14 1016.25 1016.33 1016.51 1016.67 1016.90 1017.03 1017.13 1017.32 1017.31 1017.34 1017.39 1017.35 1017.47 1017.57 1017.86 1018.10 1018.13 1018.15 1018.23 1018.25 1018.22 1018.18 1018.32 1018.52 1018.79 1018.89 1019.07 1019.25 1019.35 1019.32 1019.15 1019.04 1019.11 1019.19 1019.30 1019.35 1019.39
1015.86 1015.89 1015.93 1016.03 1016.09 1016.21 1016.37 1016.58 1016.69 1016.91 1017.08 1017.16 1017.36 1017.51 1017.61 1017.68 1017.71 1017.77 1017.87 1017.90 1018.13 1018.35 1018.36 1018.42 1018.55 1018.67 1018.67 1018.53 1018.61 1018.81 1019.05 1019.16 1019.46 1019.59 1019.63 1019.64 1019.47 1019.43 1019.48 1019.55 1019.66 1019.69 1019.74
1016.04 1016.16 1016.09 1016.11 1016.15 1016.37 1016.54 1016.80 1016.92 1017.13 1017.37 1017.57 1017.70 1017.79 1017.91 1018.02 1018.05 1018.05 1018.12 1018.22 1018.28 1018.42 1018.51 1018.67 1018.83 1018.97 1019.01 1018.97 1018.95 1019.01 1019.33 1019.54 1019.81 1019.84 1019.78 1019.79 1019.67 1019.59 1019.62 1019.77 1019.89 1019.88 1019.93
1016.45 1016.30 1016.30 1016.48 1016.56 1016.71 1016.81 1016.95 1017.15 1017.33 1017.57 1017.68 1017.88 1017.99 1018.05 1018.05 1018.17 1018.31 1018.47 1018.49 1018.49 1018.56 1018.66 1018.84 1019.03 1019.17 1019.20 1019.22 1019.27 1019.39 1019.58 1019.72 1019.97 1019.99 1020.01 1020.01 1019.86 1019.86 1019.99 1020.03 1020.01 1020.15 1020.17
1016.93 1016.73 1016.55 1016.80 1016.97 1017.16 1017.13 1017.26 1017.41 1017.72 1017.79 1017.90 1018.06 1018.25 1018.48 1018.66 1018.77 1018.86 1018.69 1018.63 1018.69 1018.76 1018.91 1018.99 1019.12 1019.28 1019.35 1019.50 1019.49 1019.47 1019.78 1020.07 1020.19 1020.25 1020.31 1020.19 1020.13 1020.13 1020.19 1020.18 1020.23 1020.31 1020.29
1017.07 1016.93 1017.03 1017.05 1017.30 1017.41 1017.39 1017.80 1017.93 1018.09 1018.14 1018.15 1018.57 1018.87 1019.03 1019.28 1019.27 1019.15 1018.88 1018.70 1018.72 1018.81 1018.92 1018.99 1019.10 1019.23 1019.46 1019.73 1019.79 1019.70 1019.91 1020.20 1020.38 1020.49 1020.51 1020.32 1020.33 1020.34 1020.31 1020.38 1020.42 1020.41 1020.36
1016.87 1017.16 1017.32 1017.34 1017.57 1017.69 1017.71 1018.14 1018.32 1018.50 1018.51 1018.81 1019.03 1019.11 1019.33 1019.37 1019.30 1019.24 1019.35 1019.10 1018.97 1018.91 1019.19 1019.32 1019.44 1019.50 1019.61 1019.73 1019.71 1019.77 1019.82 1020.19 1020.51 1020.62 1020.61 1020.48 1020.49 1020.45 1020.41 1020.42 1020.43 1020.47 1020.34
1017.07 1017.31 1017.45 1017.55 1017.74 1017.84 1018.09 1018.16 1018.46 1018.91 1019.12 1019.26 1019.32 1019.42 1019.54 1019.47 1019.44 1019.44 1019.51 1019.45 1019.36 1019.63 1019.73 1019.63 1019.47 1019.31 1019.36 1019.40 1019.56 1019.61 1019.77 1020.03 1020.47 1020.69 1020.72 1020.59 1020.63 1020.57 1020.43 1020.45 1020.43 1020.42 1020.28
1017.17 1017.35 1017.52 1017.49 1017.65 1017.90 1018.16 1018.43 1018.82 1019.03 1019.23 1019.44 1019.49 1019.56 1019.59 1019.51 1019.54 1019.63 1019.96 1019.96 1019.86 1019.72 1019.77 1019.63 1019.48 1019.33 1019.41 1019.23 1019.10 1019.31 1019.68 1019.93 1020.32 1020.61 1020.67 1020.58 1020.64 1020.52 1020.40 1020.23 1020.21 1020.20 1020.10
1017.03 1017.25 1017.33 1017.51 1017.62 1017.81 1018.25 1018.62 1018.93 1019.02 1019.22 1019.52 1019.58 1019.71 1019.65 1019.55 1019.63 1019.64 1019.93 1019.95 1019.97 1019.92 1019.79 1019.57 1019.48 1019.39 1019.29 1019.09 1019.13 1019.26 1019.54 1019.87 1020.21 1020.45 1020.58 1020.63 1020.39 1020.33 1020.17 1020.06 1020.05 1020.03 1019.95
1016.81 1017.13 1017.09 1017.35 1017.54 1017.79 1018.16 1018.74 1019.06 1019.14 1019.36 1019.65 1019.61 1019.68 1019.64 1019.54 1019.64 1019.82 1019.99 1019.91 1019.85 1019.89 1019.63 1019.45 1019.23 1019.17 1019.37 1019.31 1019.53 1019.42 1019.73 1019.89 1020.11 1020.22 1020.31 1020.37 1020.30 1020.09 1020.06 1019.92 1019.82 1019.65 1019.64
1016.58 1016.99 1017.02 1017.36 1017.63 1017.96 1018.13 1018.61 1019.07 1019.15 1019.36 1019.55 1019.56 1019.51 1019.52 1019.66 1019.75 1019.88 1019.99 1019.85 1019.69 1019.78 1019.72 1019.53 1019.48 1019.38 1019.48 1019.66 1019.78 1019.73 1019.80 1020.01 1020.07 1020.10 1020.16 1020.15 1020.10 1020.05 1019.85 1019.69 1019.59 1019.45 1019.44
1016.25 1016.75 1017.09 1017.23 1017.66 1018.09 1018.41 1018.62 1018.95 1019.07 1019.29 1019.34 1019.37 1019.49 1019.56 1019.59 1019.71 1019.80 1020.13 1019.97 1019.97 1019.99 1019.71 1019.63 1019.73 1019.63 1019.74 1019.80 1019.81 1019.87 1020.00 1020.07 1020.19 1019.99 1019.91 1019.93 1019.90 1019.85 1019.89 1019.89 1019.67 1019.49 1019.37
1016.30 1016.81 1017.10 1017.37 1017.68 1018.12 1018.40 1018.73 1019.07 1019.29 1019.30 1019.43 1019.47 1019.61 1019.46 1019.70 1019.65 1019.79 1020.13 1020.27 1020.32 1020.37 1020.15 1019.91 1020.08 1020.04 1019.94 1019.97 1019.95 1019.97 1020.07 1020.14 1020.12 1020.12 1019.95 1019.74 1019.86 1019.93 1019.95 1019.75 1019.55 1019.40 1018.99
1016.49 1016.82 1017.20 1017.62 1017.90 1018.30 1018.82 1019.31 1019.54 1019.55 1019.52 1019.48 1019.39 1019.53 1019.69 1019.31 1019.35 1019.67 1019.98 1020.32 1020.49 1020.59 1020.34 1020.15 1020.16 1020.45 1020.51 1020.25 1020.55 1020.60 1020.27 1020.16 1020.41 1020.33 1020.25 1020.10 1019.77 1019.55 1019.46 1019.25 1019.16 1018.93 1018.59
1016.25 1016.63 1017.19 1017.46 1018.06 1018.38 1018.60 1018.85 1019.08 1019.39 1019.67 1019.57 1019.42 1019.79 1019.43 1019.34 1019.45 1019.80 1020.12 1020.62 1020.63 1020.41 1020.31 1020.25 1020.33 1020.64 1020.74 1020.63 1020.94 1021.09 1021.26 1021.08 1020.71 1020.60 1020.33 1020.09 1019.96 1019.49 1019.21 1018.95 1018.84 1018.30 1018.24
1016.27 1016.53 1016.96 1017.34 1017.62 1017.95 1018.31 1018.69 1019.20 1019.50 1019.61 1019.73 1019.69 1019.74 1019.74 1019.41 1019.50 1019.77 1020.34 1020.62 1020.66 1020.58 1020.36 1020.36 1020.42 1020.52 1020.87 1021.07 1020.80 1020.95 1021.84 1021.81 1021.61 1021.18 1020.92 1020.64 1020.36 1019.82 1019.19 1018.98 1018.80 1018.36 1018.06
1015.97 1016.52 1016.83 1017.18 1017.59 1017.90 1018.21 1018.66 1019.03 1019.50 1019.87 1019.87 1019.74 1019.82 1019.77 1019.62 1019.81 1020.16 1020.29 1020.45 1020.58 1020.61 1020.57 1020.47 1020.36 1020.51 1020.86 1021.11 1021.20 1021.17 1021.33 1021.56 1021.91 1022.09 1021.50 1020.90 1020.53 1020.19 1019.77 1019.27 1018.90 1018.52 1018.12
1015.75 1016.12 1016.61 1017.12 1017.47 1017.71 1018.03 1018.40 1018.96 1019.56 1019.79 1019.74 1019.81 1020.04 1020.17 1020.01 1019.90 1020.01 1020.18 1020.30 1020.42 1020.55 1020.37 1020.45 1020.47 1020.66 1020.91 1021.08 1021.19 1021.54 1021.57 1021.59 1021.78 1022.03 1022.00 1021.35 1020.95 1020.44 1020.06 1019.68 1019.34 1018.95 1018.33
1015.70 1016.10 1016.55 1017.05 1017.25 1017.51 1017.98 1018.41 1018.79 1019.30 1019.75 1020.05 1020.09 1020.16 1020.08 1020.19 1020.01 1019.91 1020.14 1020.35 1020.49 1020.50 1020.44 1020.43 1020.45 1020.79 1021.03 1021.05 1021.19 1021.34 1021.44 1021.57 1021.88 1022.03 1022.18 1022.02 1021.84 1020.84 1020.09 1019.59 1019.33 1019.05 1018.63
Wind_Speed
3 4 8 9 10 11 11 12 11 12 12 14 15 15 15 17 15 15 14 14 14 14 14 13 14 14 15 14 14 14 15 15 14 14 14 15 14 14 14 14 13 9 14
6 5 9 10 10 12 13 13 13 12 13 14 14 15 15 14 15 14 13 12 14 13 14 15 14 15 14 14 15 14 14 14 14 13 14 14 14 14 13 14 13 11 13
6 5 7 10 12 11 13 13 13 13 13 14 15 15 14 13 13 13 12 12 12 13 14 15 14 13 12 13 13 14 14 15 15 15 13 4 6 14 13 15 14 14 12
7 4 5 11 11 12 12 13 13 13 15 15 14 14 13 13 12 12 11 11 12 14 13 14 13 15 14 12 9 10 13 15 14 12 5 4 9 13 13 13 12 12 12
6 5 5 11 11 11 11 12 13 14 15 13 14 14 14 13 13 12 11 10 11 12 12 13 12 11 12 12 10 13 15 14 14 10 6 5 4 9 12 12 11 11 11
6 6 9 11 12 11 10 12 12 13 13 13 13 14 14 13 12 11 10 9 10 10 11 11 11 10 10 10 10 13 13 14 11 6 5 5 5 10 11 10 10 10 9
6 5 7 11 13 12 11 11 11 12 13 11 12 13 13 12 10 11 10 9 10 9 9 9 9 9 9 7 10 12 11 12 6 5 5 5 5 10 10 8 10 8 7
7 5 5 11 12 12 13 13 12 12 12 12 12 12 11 11 10 10 9 8 8 8 9 8 8 8 9 9 12 11 10 11 6 5 5 3 6 9 9 8 7 7 6
5 5 5 5 9 11 12 13 13 12 12 12 10 10 10 10 10 9 8 7 8 8 8 7 7 8 8 8 7 9 10 10 5 3 4 2 5 7 6 7 5 4 4
4 4 5 3 4 5 6 13 13 13 13 13 10 11 10 11 10 10 6 6 7 8 7 6 6 8 7 8 9 8 9 10 4 3 3 1 4 5 5 4 2 2 1
4 4 4 5 5 4 4 7 11 12 13 13 11 9 6 4 4 5 5 6 6 6 6 6 6 7 6 7 8 5 7 2 3 2 1 3 2 3 3 2 1 0 2
7 5 4 5 5 5 4 5 6 6 3 4 5 5 4 4 3 2 3 6 5 5 5 6 6 6 6 2 2 4 3 3 2 2 1 3 3 3 3 2 2 3 5
8 4 5 5 4 4 5 3 3 2 2 4 4 3 5 2 2 2 2 2 2 4 3 4 4 2 3 2 2 1 4 4 2 2 2 5 6 4 4 4 5 6 7
7 7 6 6 5 5 4 3 4 3 2 2 2 3 3 1 1 2 1 1 3 3 4 4 3 4 4 3 2 3 3 4 2 1 3 8 7 6 6 6 7 8 9
6 7 7 6 5 5 5 3 3 3 3 2 3 2 2 2 1 1 2 2 2 1 1 3 3 3 3 4 4 5 4 5 4 2 2 9 8 8 8 8 9 10 10
6 9 7 8 6 6 5 4 4 3 3 3 2 2 2 1 2 2 1 1 1 2 3 2 3 3 3 3 3 3 5 5 5 5 3 4 10 10 10 11 11 11 11
6 7 9 8 7 6 6 5 4 3 3 3 3 3 2 1 2 2 1 2 2 2 4 3 2 1 2 3 3 2 3 4 4 5 4 4 5 11 12 12 12 12 12
8 8 7 8 8 7 5 5 4 3 3 4 4 2 1 1 1 1 1 1 3 4 3 3 3 2 2 3 2 1 3 4 5 5 4 4 4 4 7 12 13 12 13
11 8 5 7 9 7 5 3 3 3 3 3 2 2 4 4 3 4 2 2 4 3 4 2 2 1 1 1 2 2 2 3 4 3 6 5 5 5 3 7 10 12 13
8 7 7 4 8 6 4 2 0 1 2 3 3 2 4 5 6 5 4 3 4 3 3 3 3 4 2 1 2 2 2 1 2 3 4 3 4 4 4 5 4 6 12
8 8 8 8 6 6 2 3 2 3 1 1 3 4 5 2 5 5 3 3 3 0 2 3 1 4 4 3 3 3 3 2 3 4 3 2 4 4 3 4 2 4 5
12 10 7 9 8 5 4 3 3 2 1 1 1 2 4 3 4 4 3 2 1 2 4 4 3 1 2 4 3 2 3 4 3 6 1 2 2 2 3 3 3 4 4
11 10 10 8 8 6 5 4 3 3 2 2 1 1 1 4 4 4 5 4 2 1 3 2 2 3 2 3 5 4 3 2 2 3 5 3 3 2 2 3 4 5 4
12 8 7 7 7 6 7 4 5 4 3 3 2 2 2 3 4 4 5 4 4 2 2 1 2 2 2 3 2 4 4 3 2 1 3 3 4 4 5 4 5 5 5
13 12 9 9 8 7 7 6 5 4 2 1 1 1 1 2 3 5 4 4 4 2 1 2 3 4 1 3 2 1 2 2 2 2 2 3 3 4 2 3 3 4 4
11 11 9 9 8 8 7 7 7 8 6 3 2 3 3 1 2 3 3 3 4 3 3 2 3 4 2 3 2 2 2 2 1 2 1 2 2 4 3 2 3 4 5
Wind_Direction
185 144 144 141 135 130 125 121 119 114 111 113 112 114 111 115 116 114 113 111 108 108 106 103 100 96 93 92 101 110 111 112 111 107 103 106 98 96 96 93 91 100 101
134 149 151 149 137 130 125 119 120 116 117 115 115 113 114 113 110 110 108 105 108 106 104 99 95 95 94 95 98 101 115 113 110 109 115 103 106 108 107 110 110 107 101
132 148 150 145 133 132 121 122 122 124 120 122 121 123 121 120 116 114 111 110 105 102 98 100 98 95 96 99 96 87 100 102 101 97 99 88 105 110 103 94 89 93 104
139 134 131 135 132 126 127 129 125 128 125 128 125 128 124 122 121 116 114 113 109 102 104 101 99 98 93 97 103 91 102 92 89 83 49 49 97 100 96 98 103 107 106
129 139 149 130 131 132 131 128 131 125 131 131 126 125 125 122 115 112 112 110 101 102 106 106 102 97 96 96 91 100 98 100 96 75 65 60 62 97 105 103 106 103 104
128 136 148 144 143 139 136 133 134 130 134 132 128 133 125 127 122 122 119 114 103 100 109 109 97 88 87 97 100 96 100 103 89 65 59 55 84 104 99 103 105 98 95
132 142 146 153 146 141 138 140 137 131 137 139 133 128 137 130 125 122 121 107 107 108 111 105 99 77 58 60 109 104 109 106 85 76 73 55 60 108 100 102 92 89 87
135 138 146 147 152 153 149 142 143 141 138 139 130 133 132 133 125 114 120 112 109 112 108 102 90 77 66 84 125 114 111 111 90 81 82 83 84 87 92 91 87 83 82
134 128 146 159 156 153 144 140 144 141 142 135 128 124 130 121 123 119 119 108 101 96 89 86 83 71 63 78 144 127 116 120 101 112 112 83 101 103 107 98 95 105 105
130 143 153 151 124 133 145 144 147 149 141 133 140 121 129 131 129 120 99 104 91 87 85 75 67 66 61 55 66 126 128 119 123 114 97 115 81 96 89 95 115 88 66
132 167 146 137 120 129 149 152 145 140 143 135 139 126 80 45 72 97 118 96 81 78 70 52 41 44 46 46 47 88 112 119 122 116 139 160 123 121 131 167 164 246 277
170 187 156 132 141 148 113 86 86 95 97 122 104 93 78 64 12 95 97 78 60 52 39 30 21 21 23 29 10 84 137 147 139 166 224 185 187 183 199 225 252 264 275
175 170 151 149 142 126 118 92 88 108 110 74 104 108 88 86 73 70 47 12 8 354 14 16 7 9 340 307 309 297 155 159 172 186 242 213 211 212 229 245 260 269 276
170 167 161 157 150 145 108 121 125 110 107 134 117 112 108 79 114 137 65 342 353 13 357 353 344 318 312 298 216 240 183 153 166 198 253 225 226 232 243 255 265 274 281
164 158 169 158 158 137 130 134 126 140 157 154 144 127 138 135 178 96 55 50 353 339 288 319 316 308 309 294 290 192 172 166 171 203 224 239 236 245 253 259 265 272 280
159 167 168 167 160 150 147 146 157 170 179 160 160 172 113 83 268 198 149 152 1 313 300 315 294 295 320 335 12 170 172 161 179 198 214 258 245 247 256 263 269 273 280
168 166 174 171 157 158 160 148 162 165 163 161 187 176 113 280 307 106 360 295 257 264 306 310 262 258 23 39 22 115 132 172 194 198 203 225 255 254 255 263 269 274 279
147 169 172 174 160 155 182 158 163 179 161 181 195 112 205 274 219 155 184 320 3 25 354 342 10 356 79 123 131 162 178 203 211 211 217 227 233 252 265 264 269 275 283
165 154 150 139 149 154 148 168 177 187 183 191 134 183 194 172 157 188 148 63 38 29 16 358 3 14 124 152 193 181 192 216 228 220 226 234 244 248 260 289 297 296 297
160 147 135 151 130 131 128 121 76 229 211 191 212 192 196 182 146 109 105 103 63 1 8 21 35 14 74 348 327 312 284 195 255 262 269 283 308 306 305 289 295 298 293
166 142 157 138 141 132 128 139 133 215 215 157 204 195 191 176 110 104 86 82 114 126 36 31 38 40 22 14 55 1 323 299 314 283 348 10 330 328 314 297 285 268 283
174 163 168 156 162 167 149 155 138 133 165 104 158 180 167 161 134 121 116 145 239 99 49 28 42 97 51 17 126 109 16 352 360 360 6 117 110 314 34 324 291 271 270
178 174 168 166 167 161 143 109 86 74 48 55 43 44 219 183 154 115 130 164 93 30 76 34 35 73 125 23 39 137 76 227 322 335 6 10 341 325 329 343 360 351 358
178 179 156 160 162 162 151 135 143 150 150 222 210 167 184 195 187 164 155 170 134 84 51 57 70 73 97 135 23 44 63 135 148 319 292 275 322 306 333 353 3 7 20
172 174 165 166 161 159 158 156 150 150 161 173 218 247 210 222 238 180 167 159 122 152 159 25 60 51 46 123 130 118 71 59 97 116 254 305 314 292 299 316 337 323 318
175 170 162 179 170 164 159 161 167 173 172 172 214 214 232 205 264 243 157 207 176 175 165 150 125 114 127 76 102 128 167 163 217 137 72 309 253 297 298 356 318 328 322